User: anonymous   Login
Location: Audinghen
(50.8518°N, 1.6129°E)
Time: 07:51:53
(UTC+00:00)
Language:

IRS-P3 - Orbit

View from above orbital plane
View from above orbital plane
View from above satellite
View from above satellite

Ground track
Ground track

The orbit data is extracted from the following two-line orbital elements,

1 23827U 96017A   20299.86586140  .00000035  00000-0  36025-4 0  9993
2 23827  98.8613 249.4217 0004448  93.9426 266.2260 14.22629540276814
Epoch (UTC): 25 October 2020 20:46:50
Eccentricity: 0.0004448
inclination: 98.8613°
perigee height: 813 km
apogee height: 819 km
right ascension of ascending node: 249.4217°
argument of perigee: 93.9426°
revolutions per day: 14.22629540
mean anomaly at epoch: 266.2260°
orbit number at epoch: 27681

The dashed part of the orbit path shows where the satellite is in the earth's shadow,  

DLR